U of Miami Hecht Athletic Center FL US WEATHERSTEM current weather conditions

sailwx.info

Wind from 043 at 6 knots gusting 13

Air temperature 27.0° C
Dewpoint 20.1° C

Last reported at 2019-Sep-19 08:00 UTC.
Time now 2019-Sep-19 08:23 UTC

Location: N 25°43' W 080°17'.
View on Google Maps.

See reports from other nearby stations

  
Tides and Currents Weather Stations Pressure Air Temp Water Temp Dewpoint Dewpoint Depression Visibility Wind Speed Wind Dir Waves Ship Positions
date/time (UTC)wind fromknots sea level pressurealtimeterstation pressurevisibilityair tempwater tempwave heightnotes
2019-Sep-19 08:00 043 6 gusting 13 27.0
2019-Sep-19 07:50 026 10 gusting 15 27.1
2019-Sep-19 07:40 050 4 gusting 10 27.2
2019-Sep-19 07:30 022 6 gusting 13 27.3
2019-Sep-19 07:20 055 6 gusting 14 27.3
2019-Sep-19 07:10 029 9 gusting 15 27.3
2019-Sep-19 07:00 088 4 gusting 13 27.4
2019-Sep-19 06:50 005 4 gusting 13 27.4
2019-Sep-19 06:40 068 4 gusting 13 27.5
2019-Sep-19 06:30 057 2 gusting 9 27.5
2019-Sep-19 06:20 057 7 gusting 15 27.6
2019-Sep-19 06:10 015 7 gusting 13 27.7
2019-Sep-19 06:00 040 3 gusting 14 27.7
2019-Sep-19 05:50 087 4 gusting 12 27.4
2019-Sep-19 05:40 019 4 gusting 7 27.6
2019-Sep-19 05:30 048 6 gusting 15 27.7
2019-Sep-19 05:20 078 6 gusting 13 27.8
2019-Sep-19 05:10 020 3 gusting 7 27.9
2019-Sep-19 05:00 046 4 gusting 8 27.9
2019-Sep-19 04:50 028 3 gusting 9 27.9
2019-Sep-19 04:40 025 6 gusting 11 27.8
2019-Sep-19 04:30 076 9 gusting 12 27.8
2019-Sep-19 04:20 040 6 gusting 6 27.8
2019-Sep-19 04:10 058 5 gusting 11 27.9
2019-Sep-19 04:00 047 3 gusting 9 28.1
2019-Sep-19 03:50 011 1 gusting 8 28.1
2019-Sep-19 03:40 058 4 gusting 12 28.2
2019-Sep-19 03:30 005 6 gusting 9 28.2
2019-Sep-19 03:20 360 3 gusting 9 28.2
2019-Sep-19 03:10 025 2 gusting 10 28.2
2019-Sep-19 03:00 012 1 gusting 12 28.3
2019-Sep-19 02:50 054 8 gusting 13 28.3
2019-Sep-19 02:40 030 6 gusting 10 28.3
2019-Sep-19 02:30 032 7 gusting 9 28.3
2019-Sep-19 02:20 036 6 gusting 13 28.3
2019-Sep-19 02:00 081 6 gusting 13 28.3
2019-Sep-19 01:50 051 3 gusting 11 28.3
2019-Sep-19 01:40 067 9 gusting 13 28.3
2019-Sep-19 01:30 011 3 gusting 15 28.4
2019-Sep-19 01:20 016 4 gusting 9 28.5
2019-Sep-19 01:10 013 3 gusting 9 28.4
2019-Sep-19 01:00 013 3 gusting 13 28.5
2019-Sep-19 00:50 068 6 gusting 9 28.4
2019-Sep-19 00:40 009 7 gusting 8 28.5
2019-Sep-19 00:30 033 2 gusting 8 28.6
2019-Sep-19 00:20 071 2 gusting 9 28.6
2019-Sep-19 00:10 031 3 gusting 13 28.5
2019-Sep-19 00:00 335 3 gusting 13 28.6
2019-Sep-18 23:50 045 2 gusting 13 28.6
2019-Sep-18 23:40 069 4 gusting 11 28.6
2019-Sep-18 23:30 355 3 gusting 13 28.6
2019-Sep-18 23:20 011 9 gusting 10 28.8
2019-Sep-18 23:10 355 4 gusting 11 28.8
2019-Sep-18 23:00 033 4 gusting 11 28.9
2019-Sep-18 22:50 043 6 gusting 13 29.1
2019-Sep-18 22:40 044 5 gusting 11 29.4
2019-Sep-18 22:30 041 4 gusting 13 29.6
2019-Sep-18 22:20 018 2 gusting 12 29.8
2019-Sep-18 22:10 037 4 gusting 13 29.9
2019-Sep-18 22:00 074 9 gusting 14 30.1
2019-Sep-18 21:50 037 5 gusting 12 30.1
2019-Sep-18 21:40 360 5 gusting 13 30.0
2019-Sep-18 21:30 059 8 gusting 16 30.0
2019-Sep-18 21:20 026 11 gusting 15 30.2
2019-Sep-18 21:10 022 6 gusting 13 30.2
2019-Sep-18 21:00 049 8 gusting 12 30.5
2019-Sep-18 20:50 041 2 gusting 13 30.7
2019-Sep-18 20:40 355 6 gusting 18 30.4
2019-Sep-18 20:30 020 7 gusting 15 30.3
2019-Sep-18 20:20 080 15 gusting 15 30.6
2019-Sep-18 20:10 021 9 gusting 13 30.8
2019-Sep-18 20:00 055 9 gusting 13 30.7
2019-Sep-18 19:50 010 4 gusting 13 30.9
2019-Sep-18 19:40 069 7 gusting 15 31.1
2019-Sep-18 19:30 089 6 gusting 14 31.1
2019-Sep-18 19:20 067 10 gusting 16 31.1
2019-Sep-18 19:10 062 5 gusting 15 31.1
2019-Sep-18 19:00 046 7 gusting 13 31.2
2019-Sep-18 18:50 034 3 gusting 13 31.2
2019-Sep-18 18:40 052 9 gusting 13 31.3
2019-Sep-18 18:30 046 9 gusting 13 31.2
2019-Sep-18 18:20 063 7 gusting 12 31.5
2019-Sep-18 18:10 053 8 gusting 13 31.6
2019-Sep-18 18:00 067 8 gusting 12 31.4
2019-Sep-18 17:50 016 4 gusting 13 31.4
2019-Sep-18 17:40 101 3 gusting 16 31.2
2019-Sep-18 17:30 056 10 gusting 15 31.1
2019-Sep-18 17:20 065 9 gusting 13 31.4
2019-Sep-18 17:10 035 4 gusting 12 31.5
2019-Sep-18 17:00 070 7 gusting 13 31.8
2019-Sep-18 16:50 059 5 gusting 11 31.6
2019-Sep-18 16:40 066 10 gusting 13 31.4
2019-Sep-18 16:30 048 6 gusting 16 31.3
2019-Sep-18 16:20 085 7 gusting 13 31.2
2019-Sep-18 16:10 032 1 gusting 13 31.3
2019-Sep-18 16:00 086 3 gusting 13 30.7
2019-Sep-18 15:50 030 10 gusting 11 30.6
2019-Sep-18 15:40 082 2 gusting 9 31.1
2019-Sep-18 15:30 355 7 gusting 11 31.3
2019-Sep-18 15:20 067 7 gusting 12 31.1
2019-Sep-18 15:10 026 4 gusting 12 31.0
2019-Sep-18 15:00 058 4 gusting 11 30.9
2019-Sep-18 14:50 042 3 gusting 7 30.1
2019-Sep-18 14:40 028 4 gusting 8 29.7
2019-Sep-18 14:30 088 7 gusting 12 29.5
2019-Sep-18 14:20 020 8 gusting 10 29.7
2019-Sep-18 14:10 023 2 gusting 9 29.5
2019-Sep-18 14:00 056 3 gusting 9 29.5
2019-Sep-18 13:50 023 5 gusting 9 29.3
2019-Sep-18 13:40 055 1 gusting 7 28.9
2019-Sep-18 13:30 355 4 gusting 5 28.5
2019-Sep-18 13:20 360 3 gusting 5 28.2
2019-Sep-18 13:10 027 1 gusting 5 28.0
2019-Sep-18 13:00 005 0 gusting 4 27.4
2019-Sep-18 12:50 015 2 gusting 4 26.8
2019-Sep-18 12:40 013 1 gusting 3 26.5
2019-Sep-18 12:30 005 0 gusting 3 26.4
2019-Sep-18 12:20 005 0 gusting 4 26.2
2019-Sep-18 12:10 011 1 gusting 4 26.1
2019-Sep-18 12:00 033 3 gusting 6 26.0
2019-Sep-18 11:50 011 1 gusting 4 25.9
2019-Sep-18 11:40 319 1 gusting 4 25.8
2019-Sep-18 11:30 315 2 gusting 3 25.8
2019-Sep-18 11:20 328 1 gusting 3 25.7
2019-Sep-18 11:10 343 1 gusting 3 25.7
2019-Sep-18 11:00 348 1 gusting 3 25.7
2019-Sep-18 10:50 327 1 gusting 4 25.8
2019-Sep-18 10:40 302 2 gusting 4 25.8
2019-Sep-18 10:30 288 3 gusting 3 25.7
2019-Sep-18 10:20 306 25.7
2019-Sep-18 10:10 304 1 gusting 3 25.8
2019-Sep-18 10:00 298 1 gusting 3 25.8
2019-Sep-18 09:50 346 1 gusting 1 25.8
2019-Sep-18 09:40 346 1 gusting 2 25.9
2019-Sep-18 09:30 355 0 gusting 1 25.9
2019-Sep-18 09:20 355 0 gusting 1 25.9
2019-Sep-18 09:10 355 0 gusting 2 26.1
2019-Sep-18 09:00 355 0 gusting 2 26.2
2019-Sep-18 08:50 342 0 gusting 3 26.3
2019-Sep-18 08:40 338 1 gusting 3 26.3
2019-Sep-18 08:30 355 2 gusting 4 26.3
2019-Sep-18 08:20 022 2 gusting 3 26.3
2019-Sep-18 08:10 025 1 gusting 3 26.3
2019-Sep-18 08:00 019 1 gusting 3 26.2
2019-Sep-18 07:50 332 0 gusting 2 26.2
2019-Sep-18 07:40 303 0 gusting 3 26.3
2019-Sep-18 07:30 300 1 gusting 2 26.4
2019-Sep-18 07:20 299 1 gusting 3 26.4
2019-Sep-18 07:10 282 0 gusting 3 26.4
2019-Sep-18 07:00 309 0 gusting 3 26.4
2019-Sep-18 06:50 309 3 gusting 3 26.5
2019-Sep-18 06:40 340 0 gusting 2 26.5
2019-Sep-18 06:30 360 0 gusting 1 26.7
2019-Sep-18 06:10 296 0 gusting 3 27.1
2019-Sep-18 06:00 292 1 gusting 2 27.2
2019-Sep-18 05:50 290 0 gusting 2 27.2
2019-Sep-18 05:40 287 1 gusting 3 27.2
2019-Sep-18 05:30 27.2
2019-Sep-18 05:20 360 0 gusting 1 27.2
2019-Sep-18 05:10 360 1 gusting 3 27.3
2019-Sep-18 05:00 360 0 gusting 1 27.3
2019-Sep-18 04:50 360 0 gusting 1 27.4
2019-Sep-18 04:40 005 0 gusting 1 27.6
2019-Sep-18 04:30 005 0 gusting 2 27.7
2019-Sep-18 04:20 009 1 gusting 2 27.8
2019-Sep-18 04:10 005 0 gusting 3 27.9
2019-Sep-18 04:00 005 0 gusting 2 27.9
2019-Sep-18 03:50 005 0 gusting 3 28.1
2019-Sep-18 03:40 005 1 gusting 3 28.2
2019-Sep-18 03:30 005 2 gusting 3 28.3
2019-Sep-18 03:20 28.4
2019-Sep-18 03:10 355 1 gusting 4 28.5
2019-Sep-18 03:00 026 2 gusting 4 28.6
2019-Sep-18 02:50 035 2 gusting 5 28.7
2019-Sep-18 02:40 043 2 gusting 6 28.7
2019-Sep-18 02:30 037 5 gusting 6 28.7
2019-Sep-18 02:20 050 2 gusting 8 28.8
2019-Sep-18 02:10 053 1 gusting 8 28.8
2019-Sep-18 02:00 056 7 gusting 8 28.8
2019-Sep-18 01:50 027 2 gusting 8 28.8
2019-Sep-18 01:40 011 3 gusting 7 28.8
2019-Sep-18 01:30 011 3 gusting 9 28.9
2019-Sep-18 01:20 012 4 gusting 7 29.0
2019-Sep-18 01:10 041 3 gusting 8 29.0
2019-Sep-18 01:00 033 4 gusting 8 29.1
2019-Sep-18 00:50 043 3 gusting 10 29.2
2019-Sep-18 00:40 015 3 gusting 8 29.2
2019-Sep-18 00:30 034 3 gusting 8 29.3
2019-Sep-18 00:20 039 3 gusting 7 29.3
2019-Sep-18 00:10 057 5 gusting 9 29.3
2019-Sep-18 00:00 044 4 gusting 7 29.5
2019-Sep-17 23:50 038 3 gusting 7 29.7
2019-Sep-17 23:40 050 4 gusting 8 29.8
2019-Sep-17 23:30 050 4 gusting 8 30.0
2019-Sep-17 23:20 046 5 gusting 8 30.4
2019-Sep-17 23:10 057 5 gusting 6 31.2
2019-Sep-17 23:00 051 3 gusting 9 32.0
2019-Sep-17 22:50 023 4 gusting 8 32.7
2019-Sep-17 22:40 311 3 gusting 6 33.1
2019-Sep-17 22:30 300 2 gusting 8 33.1
2019-Sep-17 22:20 360 4 gusting 9 33.2
2019-Sep-17 22:10 355 1 gusting 8 33.2
2019-Sep-17 22:00 322 2 gusting 9 33.6
2019-Sep-17 21:50 355 4 gusting 7 33.9
2019-Sep-17 21:40 276 5 gusting 7 33.9
2019-Sep-17 21:30 292 4 gusting 9 33.9
2019-Sep-17 21:20 346 7 gusting 10 34.2
2019-Sep-17 21:10 304 2 gusting 8 34.4
2019-Sep-17 21:00 312 4 gusting 11 34.3
2019-Sep-17 20:50 318 5 gusting 12 34.1
2019-Sep-17 20:40 291 6 gusting 11 34.4
2019-Sep-17 20:30 355 2 gusting 12 34.6
2019-Sep-17 20:20 299 4 gusting 9 34.7
2019-Sep-17 20:10 311 4 gusting 11 34.6
2019-Sep-17 20:00 313 7 gusting 10 34.4
2019-Sep-17 19:50 300 2 gusting 9 33.9
2019-Sep-17 19:40 360 4 gusting 8 34.0
2019-Sep-17 19:30 325 2 gusting 10 34.4
2019-Sep-17 19:20 304 6 gusting 10 34.4
2019-Sep-17 19:10 355 1 gusting 11 34.3
2019-Sep-17 19:00 305 3 gusting 13 34.8
2019-Sep-17 18:50 299 6 gusting 8 34.7
2019-Sep-17 18:40 298 3 gusting 11 34.8
2019-Sep-17 18:30 022 4 gusting 10 34.6
2019-Sep-17 18:20 355 3 gusting 11 34.2
2019-Sep-17 18:10 011 6 gusting 8 33.8
2019-Sep-17 18:00 351 6 gusting 9 34.0
2019-Sep-17 17:50 036 5 gusting 9 34.4
2019-Sep-17 17:40 355 4 gusting 13 34.1
2019-Sep-17 17:30 333 2 gusting 8 34.0
2019-Sep-17 17:20 344 3 gusting 13 33.6
2019-Sep-17 17:10 005 4 gusting 12 33.3
2019-Sep-17 17:00 032 4 gusting 11 33.6
2019-Sep-17 16:50 355 6 gusting 10 33.5
2019-Sep-17 16:40 302 6 gusting 8 33.7
2019-Sep-17 16:30 334 5 gusting 10 33.1
2019-Sep-17 16:20 329 3 gusting 7 33.1
2019-Sep-17 16:10 013 6 gusting 8 32.9
2019-Sep-17 16:00 331 6 gusting 10 32.5
2019-Sep-17 15:50 027 4 gusting 11 32.3
2019-Sep-17 15:40 042 3 gusting 8 32.3
2019-Sep-17 15:30 330 3 gusting 11 31.8
2019-Sep-17 15:20 016 4 gusting 8 31.6
2019-Sep-17 15:10 005 4 gusting 9 31.4
2019-Sep-17 15:00 005 3 gusting 8 31.2
2019-Sep-17 14:50 355 4 gusting 9 30.8
2019-Sep-17 14:40 284 1 gusting 7 30.3
2019-Sep-17 14:30 360 3 gusting 7 30.0
2019-Sep-17 14:20 018 3 gusting 8 29.6
2019-Sep-17 14:10 005 3 gusting 8 29.4
2019-Sep-17 14:00 269 2 gusting 7 29.2
2019-Sep-17 13:50 005 4 gusting 5 28.9
2019-Sep-17 13:40 360 1 gusting 7 28.6
2019-Sep-17 13:30 021 3 gusting 5 28.4
2019-Sep-17 13:20 355 1 gusting 4 28.1
2019-Sep-17 13:10 005 3 gusting 6 27.7
2019-Sep-17 13:00 309 2 gusting 5 27.3
2019-Sep-17 12:50 355 1 gusting 5 27.1
2019-Sep-17 12:40 305 2 gusting 5 26.7
2019-Sep-17 12:30 293 0 gusting 4 26.5
2019-Sep-17 12:20 309 3 gusting 3 26.2
2019-Sep-17 12:10 301 1 gusting 3 25.9
2019-Sep-17 12:00 329 1 gusting 3 25.7
2019-Sep-17 11:50 342 1 gusting 3 25.6
2019-Sep-17 11:30 327 0 gusting 3 25.5
2019-Sep-17 11:20 355 1 gusting 2 25.6
2019-Sep-17 11:10 009 1 gusting 3 25.6
2019-Sep-17 11:00 355 0 gusting 3 25.6
2019-Sep-17 10:50 341 0 gusting 3 25.7
2019-Sep-17 10:40 355 1 gusting 3 25.7
2019-Sep-17 10:30 355 1 gusting 3 25.8
2019-Sep-17 10:20 348 0 gusting 2 25.8
2019-Sep-17 10:10 348 1 gusting 2 25.9
2019-Sep-17 10:00 341 0 gusting 2 25.9
2019-Sep-17 09:50 360 1 gusting 3 26.0
2019-Sep-17 09:40 355 2 gusting 3 26.1
2019-Sep-17 09:30 323 1 gusting 3 26.1
2019-Sep-17 09:20 296 0 gusting 3 26.2
2019-Sep-17 09:10 305 0 gusting 2 26.2
2019-Sep-17 09:00 306 1 gusting 2 26.2
2019-Sep-17 08:50 311 1 gusting 2 26.3
2019-Sep-17 08:40 349 0 gusting 2 26.3
2019-Sep-17 08:30 360 1 gusting 2 26.3
2019-Sep-17 08:20 26.6
2019-Sep-17 08:10 300 1 gusting 2 26.6
2019-Sep-17 08:00 296 0 gusting 3 26.7